Time,TemperatureF,DewpointF,PressureIn,WindDirection,WindDirectionDegrees,WindSpeedMPH,WindSpeedGustMPH,Humidity,HourlyPrecipIn,Conditions,Clouds,dailyrainin,SolarRadiationWatts/m^2,SoftwareType,DateUTC
2013-08-23 00:21:00,63.0,40.0,-100.00,SE,127,3.0,6.0,42,0.00,,,0.00,0.000000,,2013-08-23 06:21:00,
2013-08-23 00:32:00,63.0,40.0,-100.00,SE,127,3.0,6.0,42,0.00,,,0.00,0.000000,,2013-08-23 06:32:00,
2013-08-23 00:41:00,63.0,40.0,-100.00,SE,127,3.0,6.0,42,0.00,,,0.00,0.000000,,2013-08-23 06:41:00,
2013-08-23 00:52:00,63.0,40.0,-100.00,SE,127,3.0,6.0,42,0.00,,,0.00,0.000000,,2013-08-23 06:52:00,
2013-08-23 01:22:00,63.0,42.0,-100.00,ENE,60,2.0,8.0,46,0.00,,,0.00,0.000000,,2013-08-23 07:22:00,
2013-08-23 01:32:00,63.0,42.0,-100.00,ENE,60,2.0,8.0,46,0.00,,,0.00,0.000000,,2013-08-23 07:32:00,
2013-08-23 01:42:00,63.0,42.0,-100.00,ENE,60,2.0,8.0,46,0.00,,,0.00,0.000000,,2013-08-23 07:42:00,
2013-08-23 01:52:00,63.0,42.0,-100.00,ENE,60,2.0,8.0,46,0.00,,,0.00,0.000000,,2013-08-23 07:52:00,
2013-08-23 02:22:00,61.0,42.0,-100.00,NE,56,2.0,4.0,49,0.00,,,0.00,0.000000,,2013-08-23 08:22:00,
2013-08-23 02:32:00,61.0,42.0,-100.00,NE,56,2.0,4.0,49,0.00,,,0.00,0.000000,,2013-08-23 08:32:00,
2013-08-23 02:42:00,61.0,42.0,-100.00,NE,56,2.0,4.0,49,0.00,,,0.00,0.000000,,2013-08-23 08:42:00,
2013-08-23 02:52:00,61.0,42.0,-100.00,NE,56,2.0,4.0,49,0.00,,,0.00,0.000000,,2013-08-23 08:52:00,
2013-08-23 03:21:00,61.0,42.0,-100.00,WNW,302,2.0,6.0,50,0.00,,,0.00,0.000000,,2013-08-23 09:21:00,
2013-08-23 03:33:00,61.0,42.0,-100.00,WNW,302,2.0,6.0,50,0.00,,,0.00,0.000000,,2013-08-23 09:33:00,
2013-08-23 03:43:00,61.0,42.0,-100.00,WNW,302,2.0,6.0,50,0.00,,,0.00,0.000000,,2013-08-23 09:43:00,
2013-08-23 03:53:00,61.0,42.0,-100.00,WNW,302,2.0,6.0,50,0.00,,,0.00,0.000000,,2013-08-23 09:53:00,
2013-08-23 04:22:00,60.0,42.0,-100.00,North,0,2.0,12.0,52,0.00,,,0.00,0.000000,,2013-08-23 10:22:00,
2013-08-23 04:32:00,60.0,42.0,-100.00,North,0,2.0,12.0,52,0.00,,,0.00,0.000000,,2013-08-23 10:32:00,
2013-08-23 04:42:00,60.0,42.0,-100.00,North,0,2.0,12.0,52,0.00,,,0.00,0.000000,,2013-08-23 10:42:00,
2013-08-23 04:52:00,60.0,42.0,-100.00,North,0,2.0,12.0,52,0.00,,,0.00,0.000000,,2013-08-23 10:52:00,
2013-08-23 05:22:00,56.0,47.0,-100.00,North,356,10.0,18.0,72,0.01,,,0.01,0.000000,,2013-08-23 11:22:00,
2013-08-23 05:33:00,56.0,47.0,-100.00,North,356,10.0,18.0,72,0.01,,,0.01,0.000000,,2013-08-23 11:33:00,
2013-08-23 05:42:00,56.0,47.0,-100.00,North,356,10.0,18.0,72,0.01,,,0.01,0.000000,,2013-08-23 11:42:00,
2013-08-23 05:52:00,56.0,47.0,-100.00,North,356,10.0,18.0,72,0.01,,,0.01,0.000000,,2013-08-23 11:52:00,
2013-08-23 06:22:00,56.0,43.0,-100.00,North,4,4.0,13.0,62,0.00,,,0.01,0.000000,,2013-08-23 12:22:00,
2013-08-23 06:31:00,56.0,43.0,-100.00,North,4,4.0,13.0,62,0.00,,,0.01,0.000000,,2013-08-23 12:31:00,
2013-08-23 06:42:00,56.0,43.0,-100.00,North,4,4.0,13.0,62,0.00,,,0.01,0.000000,,2013-08-23 12:42:00,
2013-08-23 06:52:00,56.0,43.0,-100.00,North,4,4.0,13.0,62,0.00,,,0.01,0.000000,,2013-08-23 12:52:00,
2013-08-23 07:22:00,57.0,42.0,-100.00,ESE,112,4.0,19.0,57,0.00,,,0.01,3.000000,,2013-08-23 13:22:00,
2013-08-23 07:32:00,57.0,42.0,-100.00,ESE,112,4.0,19.0,57,0.00,,,0.01,3.000000,,2013-08-23 13:32:00,
2013-08-23 07:42:00,57.0,42.0,-100.00,ESE,112,4.0,19.0,57,0.00,,,0.01,3.000000,,2013-08-23 13:42:00,
2013-08-23 07:52:00,57.0,42.0,-100.00,ESE,112,4.0,19.0,57,0.00,,,0.01,3.000000,,2013-08-23 13:52:00,
2013-08-23 08:21:00,61.0,45.0,-100.00,ESE,117,3.0,8.0,55,0.00,,,0.01,106.000000,,2013-08-23 14:21:00,
2013-08-23 08:32:00,61.0,45.0,-100.00,ESE,117,3.0,8.0,55,0.00,,,0.01,106.000000,,2013-08-23 14:32:00,
2013-08-23 08:42:00,61.0,45.0,-100.00,ESE,117,3.0,8.0,55,0.00,,,0.01,106.000000,,2013-08-23 14:42:00,
2013-08-23 08:52:00,61.0,45.0,-100.00,ESE,117,3.0,8.0,55,0.00,,,0.01,106.000000,,2013-08-23 14:52:00,
2013-08-23 09:22:00,65.0,46.0,-100.00,West,268,3.0,7.0,51,0.00,,,0.01,293.000000,,2013-08-23 15:22:00,
2013-08-23 09:33:00,65.0,46.0,-100.00,West,268,3.0,7.0,51,0.00,,,0.01,293.000000,,2013-08-23 15:33:00,
2013-08-23 09:43:00,65.0,46.0,-100.00,West,268,3.0,7.0,51,0.00,,,0.01,293.000000,,2013-08-23 15:43:00,
2013-08-23 09:54:00,65.0,46.0,-100.00,West,268,3.0,7.0,51,0.00,,,0.01,293.000000,,2013-08-23 15:54:00,
2013-08-23 10:24:00,66.0,45.0,-100.00,SSE,155,5.0,8.0,46,0.00,,,0.01,393.000000,,2013-08-23 16:24:00,
2013-08-23 10:34:00,66.0,45.0,-100.00,SSE,155,5.0,8.0,46,0.00,,,0.01,393.000000,,2013-08-23 16:34:00,
2013-08-23 10:42:00,66.0,45.0,-100.00,SSE,155,5.0,8.0,46,0.00,,,0.01,393.000000,,2013-08-23 16:42:00,
2013-08-23 10:53:00,66.0,45.0,-100.00,SSE,155,5.0,8.0,46,0.00,,,0.01,393.000000,,2013-08-23 16:53:00,
2013-08-23 11:23:00,69.0,43.0,-100.00,SSW,197,4.0,10.0,39,0.00,,,0.01,476.000000,,2013-08-23 17:23:00,
2013-08-23 11:34:00,69.0,43.0,-100.00,SSW,197,4.0,10.0,39,0.00,,,0.01,476.000000,,2013-08-23 17:34:00,
2013-08-23 11:42:00,69.0,43.0,-100.00,SSW,197,4.0,10.0,39,0.00,,,0.01,476.000000,,2013-08-23 17:42:00,
2013-08-23 11:53:00,69.0,43.0,-100.00,SSW,197,4.0,10.0,39,0.00,,,0.01,476.000000,,2013-08-23 17:53:00,
2013-08-23 12:22:00,74.0,41.0,-100.00,SSE,163,8.0,14.0,31,0.00,,,-99.99,752.000000,,2013-08-23 18:22:00,
2013-08-23 12:32:00,74.0,41.0,-100.00,SSE,163,8.0,14.0,31,0.00,,,-99.99,752.000000,,2013-08-23 18:32:00,
2013-08-23 12:42:00,74.0,41.0,-100.00,SSE,163,8.0,14.0,31,0.00,,,-99.99,752.000000,,2013-08-23 18:42:00,
2013-08-23 12:52:00,74.0,41.0,-100.00,SSE,163,8.0,14.0,31,0.00,,,-99.99,752.000000,,2013-08-23 18:52:00,
2013-08-23 13:22:00,76.0,41.0,-100.00,SE,146,9.0,15.0,29,0.00,,,0.01,896.000000,,2013-08-23 19:22:00,
2013-08-23 13:32:00,76.0,41.0,-100.00,SE,146,9.0,15.0,29,0.00,,,0.01,896.000000,,2013-08-23 19:32:00,
2013-08-23 13:42:00,76.0,41.0,-100.00,SE,146,9.0,15.0,29,0.00,,,0.01,896.000000,,2013-08-23 19:42:00,
2013-08-23 13:52:00,76.0,41.0,-100.00,SE,146,9.0,15.0,29,0.00,,,0.01,896.000000,,2013-08-23 19:52:00,
2013-08-23 14:22:00,77.0,39.0,-100.00,SE,132,7.0,17.0,26,0.00,,,0.01,930.000000,,2013-08-23 20:22:00,
2013-08-23 14:32:00,77.0,39.0,-100.00,SE,132,7.0,17.0,26,0.00,,,0.01,930.000000,,2013-08-23 20:32:00,
2013-08-23 14:42:00,77.0,39.0,-100.00,SE,132,7.0,17.0,26,0.00,,,0.01,930.000000,,2013-08-23 20:42:00,
2013-08-23 14:52:00,77.0,39.0,-100.00,SE,132,7.0,17.0,26,0.00,,,0.01,930.000000,,2013-08-23 20:52:00,
2013-08-23 15:21:00,77.0,38.0,-100.00,SSE,157,9.0,18.0,25,0.00,,,0.01,659.000000,,2013-08-23 21:21:00,
2013-08-23 15:34:00,77.0,38.0,-100.00,SSE,157,9.0,18.0,25,0.00,,,0.01,659.000000,,2013-08-23 21:34:00,
2013-08-23 15:43:00,77.0,38.0,-100.00,SSE,157,9.0,18.0,25,0.00,,,0.01,659.000000,,2013-08-23 21:43:00,
2013-08-23 15:54:00,77.0,38.0,-100.00,SSE,157,9.0,18.0,25,0.00,,,0.01,659.000000,,2013-08-23 21:54:00,
2013-08-23 16:24:00,76.0,38.0,-100.00,SE,142,8.0,16.0,25,0.00,,,0.01,425.000000,,2013-08-23 22:24:00,
2013-08-23 16:33:00,76.0,38.0,-100.00,SE,142,8.0,16.0,25,0.00,,,0.01,425.000000,,2013-08-23 22:33:00,
2013-08-23 16:43:00,76.0,38.0,-100.00,SE,142,8.0,16.0,25,0.00,,,0.01,425.000000,,2013-08-23 22:43:00,
2013-08-23 16:53:00,76.0,38.0,-100.00,SE,142,8.0,16.0,25,0.00,,,0.01,425.000000,,2013-08-23 22:53:00,
2013-08-23 17:22:00,79.0,32.0,-100.00,SSW,200,9.0,22.0,18,0.00,,,0.01,499.000000,,2013-08-23 23:22:00,
2013-08-23 17:33:00,79.0,32.0,-100.00,SSW,200,9.0,22.0,18,0.00,,,0.01,499.000000,,2013-08-23 23:33:00,
2013-08-23 17:43:00,79.0,32.0,-100.00,SSW,200,9.0,22.0,18,0.00,,,0.01,499.000000,,2013-08-23 23:43:00,
2013-08-23 17:54:00,79.0,32.0,-100.00,SSW,200,9.0,22.0,18,0.00,,,0.01,499.000000,,2013-08-23 23:54:00,
2013-08-23 18:21:00,77.0,29.0,-100.00,South,178,7.0,17.0,17,0.00,,,0.01,370.000000,,2013-08-24 00:21:00,
2013-08-23 18:32:00,77.0,29.0,-100.00,South,178,7.0,17.0,17,0.00,,,0.01,370.000000,,2013-08-24 00:32:00,
2013-08-23 18:43:00,77.0,29.0,-100.00,South,178,7.0,17.0,17,0.00,,,0.01,370.000000,,2013-08-24 00:43:00,
2013-08-23 18:53:00,77.0,29.0,-100.00,South,178,7.0,17.0,17,0.00,,,0.01,370.000000,,2013-08-24 00:53:00,
2013-08-23 20:22:00,67.0,22.0,-100.00,WSW,252,2.0,9.0,18,0.00,,,0.01,50.000000,,2013-08-24 02:22:00,
2013-08-23 20:32:00,67.0,22.0,-100.00,WSW,252,2.0,9.0,18,0.00,,,0.01,50.000000,,2013-08-24 02:32:00,
2013-08-23 20:42:00,67.0,22.0,-100.00,WSW,252,2.0,9.0,18,0.00,,,0.01,50.000000,,2013-08-24 02:42:00,
2013-08-23 20:52:00,67.0,22.0,-100.00,WSW,252,2.0,9.0,18,0.00,,,0.01,50.000000,,2013-08-24 02:52:00,
2013-08-23 21:22:00,66.0,23.0,-100.00,WNW,302,3.0,5.0,19,0.00,,,0.01,0.000000,,2013-08-24 03:22:00,
2013-08-23 21:34:00,66.0,23.0,-100.00,WNW,302,3.0,5.0,19,0.00,,,0.01,0.000000,,2013-08-24 03:34:00,
2013-08-23 21:44:00,66.0,23.0,-100.00,WNW,302,3.0,5.0,19,0.00,,,0.01,0.000000,,2013-08-24 03:44:00,
2013-08-23 21:54:00,66.0,23.0,-100.00,WNW,302,3.0,5.0,19,0.00,,,0.01,0.000000,,2013-08-24 03:54:00,
2013-08-23 22:24:00,64.0,24.0,-100.00,South,181,4.0,6.0,22,0.00,,,0.01,0.000000,,2013-08-24 04:24:00,
2013-08-23 22:34:00,64.0,24.0,-100.00,South,181,4.0,6.0,22,0.00,,,0.01,0.000000,,2013-08-24 04:34:00,
2013-08-23 22:44:00,64.0,24.0,-100.00,South,181,4.0,6.0,22,0.00,,,0.01,0.000000,,2013-08-24 04:44:00,
2013-08-23 22:53:00,64.0,24.0,-100.00,South,181,4.0,6.0,22,0.00,,,0.01,0.000000,,2013-08-24 04:53:00,
2013-08-23 23:23:00,61.0,31.0,-100.00,East,94,4.0,9.0,32,0.00,,,0.01,0.000000,,2013-08-24 05:23:00,
2013-08-23 23:33:00,61.0,31.0,-100.00,East,94,4.0,9.0,32,0.00,,,0.01,0.000000,,2013-08-24 05:33:00,
2013-08-23 23:43:00,61.0,31.0,-100.00,East,94,4.0,9.0,32,0.00,,,0.01,0.000000,,2013-08-24 05:43:00,